N1JOT Weather Reports


Display with metric or nautical units.
time (UTC)temp
F
wind
direction
speed
MPH
gust
MPH
rain 1hr
in
rain 24hr
in
rain mn
in
humidity
%
barometer
mb
20260902182559 75 76 6.0 12.0 0.00 0.08 0.00 57 1021.6
20260902182059 75 75 4.0 9.0 0.00 0.08 0.00 58 1021.6
20260902181603 74 98 5.0 10.0 0.00 0.08 0.00 59 1021.4
20260902181100 75 102 4.0 12.0 0.00 0.08 0.00 62 1021.4
20260902180559 74 74 5.0 12.0 0.00 0.08 0.00 60 1021.5
20260902180105 74 87 7.0 12.0 0.00 0.08 0.00 60 1021.5
20260902175559 74 99 4.0 12.0 0.00 0.12 0.00 62 1021.5
20260902175102 74 76 6.0 10.0 0.00 0.12 0.00 60 1021.7
20260902174602 74 73 2.0 8.0 0.00 0.12 0.00 62 1021.7
20260902174100 74 58 3.0 8.0 0.00 0.12 0.00 63 1021.8
20260902173600 74 67 4.0 8.0 0.00 0.12 0.00 61 1021.7
20260902173134 74 79 3.0 7.0 0.00 0.12 0.00 62 1021.7
20260902172558 74 78 3.0 9.0 0.00 0.12 0.00 62 1021.9
20260902172100 74 64 5.0 9.0 0.00 0.12 0.00 63 1021.8
20260902171623 74 63 3.0 9.0 0.00 0.12 0.00 63 1021.9
20260902171100 74 71 2.0 9.0 0.00 0.12 0.00 63 1021.8
20260902170559 74 67 4.0 9.0 0.00 0.12 0.00 64 1021.8
20260902165559 74 71 3.0 7.0 0.00 0.12 0.00 67 1022.0
20260902165059 73 69 1.0 5.0 0.00 0.12 0.00 65 1021.9
20260902164608 74 57 1.0 4.0 0.00 0.12 0.00 66 1022.0
20260902164059 74 104 2.0 7.0 0.00 0.12 0.00 64 1022.0
20260902163600 74 88 3.0 9.0 0.00 0.12 0.00 66 1022.0
20260902163101 73 115 5.0 9.0 0.00 0.12 0.00 65 1021.9
20260902162600 73 69 4.0 10.0 0.00 0.12 0.00 64 1022.0
20260902162103 73 61 4.0 10.0 0.00 0.12 0.00 65 1022.1
20260902161606 73 72 2.0 9.0 0.00 0.12 0.00 65 1022.2
20260902161101 72 71 3.0 6.0 0.00 0.12 0.00 68 1022.1
20260902160601 72 70 2.0 6.0 0.00 0.12 0.00 69 1022.2
20260902160106 72 121 2.0 6.0 0.00 0.12 0.00 69 1022.3
20260902155602 72 103 3.0 5.0 0.00 0.12 0.00 71 1022.5
20260902155100 72 103 1.0 7.0 0.00 0.12 0.00 72 1022.6
20260902154601 72 0 0.0 7.0 0.00 0.12 0.00 70 1022.6
20260902154100 72 24 2.0 7.0 0.00 0.12 0.00 70 1022.6
20260902153601 71 80 3.0 7.0 0.00 0.12 0.00 71 1022.7
20260902153100 72 80 2.0 7.0 0.00 0.12 0.00 72 1022.7
20260902152600 71 77 3.0 7.0 0.00 0.12 0.00 71 1022.6
20260902152103 72 68 2.0 7.0 0.00 0.12 0.00 70 1022.6
20260902151601 72 25 2.0 7.0 0.00 0.12 0.00 72 1022.6
20260902151104 72 69 2.0 7.0 0.00 0.12 0.00 72 1022.7
20260902150600 71 91 1.0 5.0 0.00 0.12 0.00 74 1022.7
20260902150104 71 95 2.0 5.0 0.00 0.12 0.00 74 1022.7
20260902145601 71 92 1.0 9.0 0.00 0.12 0.00 74 1022.7
20260902145100 71 55 2.0 9.0 0.00 0.12 0.00 75 1022.8
20260902144604 70 69 3.0 9.0 0.00 0.12 0.00 76 1022.8
20260902144100 70 95 3.0 7.0 0.00 0.12 0.00 76 1022.5
20260902143602 70 111 3.0 8.0 0.00 0.12 0.00 75 1022.5
20260902143109 70 94 3.0 8.0 0.00 0.12 0.00 76 1022.4
20260902142600 69 90 4.0 10.0 0.00 0.12 0.00 77 1022.5
20260902142101 69 68 3.0 10.0 0.00 0.12 0.00 78 1022.3
20260902141610 69 77 4.0 10.0 0.00 0.12 0.00 77 1022.3
20260902141104 69 98 4.0 8.0 0.00 0.12 0.00 77 1022.2
20260902140603 69 75 3.0 8.0 0.00 0.12 0.00 77 1022.1
20260902135600 68 87 4.0 8.0 0.00 0.12 0.00 79 1022.0
20260902135100 68 70 3.0 8.0 0.00 0.12 0.00 81 1021.9
20260902134600 68 68 4.0 8.0 0.00 0.12 0.00 82 1021.8
20260902134100 67 79 4.0 8.0 0.00 0.12 0.00 85 1021.7
20260902133600 67 92 3.0 8.0 0.00 0.12 0.00 86 1021.8
20260902133108 67 72 3.0 7.0 0.00 0.12 0.00 87 1021.8
20260902132605 66 78 3.0 5.0 0.00 0.12 0.00 89 1021.7
20260902132100 66 41 2.0 6.0 0.00 0.12 0.00 90 1021.8
20260902131625 66 74 2.0 6.0 0.00 0.12 0.00 90 1021.8
20260902131100 66 80 2.0 6.0 0.00 0.12 0.00 91 1021.9
20260902130558 66 101 1.0 4.0 0.00 0.12 0.00 93 1021.9
20260902125559 65 60 0.0 3.0 0.00 0.12 0.00 94 1022.0
20260902125100 65 58 1.0 3.0 0.00 0.12 0.00 94 1022.0
20260902124612 64 74 0.0 3.0 0.00 0.12 0.00 94 1022.1
20260902124059 64 0 0.0 3.0 0.00 0.12 0.00 94 1022.1
20260902123556 64 0 0.0 2.0 0.00 0.12 0.00 95 1022.1
20260902123151 64 0 0.0 3.0 0.00 0.12 0.00 95 1022.1
20260902122559 64 103 0.0 3.0 0.00 0.12 0.00 95 1022.0
20260902122058 63 92 0.0 3.0 0.00 0.12 0.00 95 1022.1
20260902121602 63 0 0.0 0.0 0.00 0.12 0.00 95 1022.2
20260902121059 63 0 0.0 0.0 0.00 0.12 0.00 96 1022.3
20260902120559 62 0 0.0 0.0 0.00 0.12 0.00 95 1022.3
20260902115601 62 0 0.0 0.0 0.00 0.12 0.00 95 1022.4
20260902115058 62 0 0.0 0.0 0.00 0.12 0.00 96 1022.5
20260902114603 61 0 0.0 0.0 0.00 0.12 0.00 95 1022.5
20260902114059 61 0 0.0 0.0 0.00 0.12 0.00 96 1022.3
20260902113559 60 0 0.0 0.0 0.00 0.12 0.00 95 1022.3
20260902113058 60 0 0.0 0.0 0.00 0.12 0.00 96 1022.3
20260902112559 60 0 0.0 0.0 0.00 0.12 0.00 95 1022.2
20260902112058 60 0 0.0 0.0 0.00 0.12 0.00 95 1022.1
20260902111601 59 0 0.0 0.0 0.00 0.12 0.00 95 1022.1
20260902111059 59 0 0.0 0.0 0.00 0.12 0.00 95 1022.1
20260902110601 59 0 0.0 0.0 0.00 0.12 0.00 95 1022.1
20260902110110 59 0 0.0 0.0 0.00 0.12 0.00 95 1021.9
20260902105556 59 0 0.0 0.0 0.00 0.12 0.00 95 1021.8
20260902105058 58 0 0.0 0.0 0.00 0.12 0.00 95 1021.8
20260902104601 58 0 0.0 0.0 0.00 0.12 0.00 95 1021.8
20260902104058 58 0 0.0 0.0 0.00 0.12 0.00 95 1021.6
20260902103559 58 0 0.0 0.0 0.00 0.12 0.00 95 1021.7
20260902103102 58 0 0.0 0.0 0.00 0.12 0.00 95 1021.6
20260902102559 58 0 0.0 0.0 0.00 0.12 0.00 95 1021.7
20260902102059 58 0 0.0 0.0 0.00 0.12 0.00 95 1021.4
20260902101601 58 0 0.0 0.0 0.00 0.12 0.00 95 1021.4
20260902101058 58 0 0.0 0.0 0.00 0.12 0.00 95 1021.3
20260902100602 58 0 0.0 0.0 0.00 0.12 0.00 95 1021.2
20260902095600 58 0 0.0 0.0 0.00 0.12 0.00 95 1021.4
20260902095103 58 0 0.0 0.0 0.00 0.12 0.00 95 1021.3
20260902094604 58 0 0.0 0.0 0.00 0.12 0.00 95 1021.1
20260902094101 59 0 0.0 0.0 0.00 0.12 0.00 95 1020.9
20260902093601 59 0 0.0 0.0 0.00 0.12 0.00 95 1021.0
20260902093108 59 0 0.0 1.0 0.00 0.12 0.00 95 1021.0
20260902092600 59 0 0.0 1.0 0.00 0.12 0.00 95 1021.0
20260902092101 59 0 0.0 1.0 0.00 0.12 0.00 95 1021.0
20260902091615 58 0 0.0 1.0 0.00 0.12 0.00 95 1021.1
20260902091100 58 0 0.0 1.0 0.00 0.12 0.00 95 1020.9
20260902090602 59 0 0.0 1.0 0.00 0.12 0.00 95 1020.9
20260902090114 59 0 0.0 1.0 0.00 0.12 0.00 95 1021.0
20260902085601 59 0 0.0 1.0 0.00 0.12 0.00 95 1021.1
20260902085101 59 0 0.0 1.0 0.00 0.12 0.00 95 1021.0
20260902084604 59 0 0.0 1.0 0.00 0.12 0.00 95 1021.0
20260902084101 59 0 0.0 0.0 0.00 0.12 0.00 95 1020.8
20260902083600 59 0 0.0 1.0 0.00 0.12 0.00 95 1020.8
20260902083105 59 0 0.0 1.0 0.00 0.12 0.00 95 1020.8
20260902082601 59 0 0.0 1.0 0.00 0.12 0.00 95 1020.8
20260902082101 59 0 0.0 1.0 0.00 0.12 0.00 95 1020.7
20260902081602 59 0 0.0 1.0 0.00 0.12 0.00 95 1020.7
20260902081100 59 0 0.0 1.0 0.00 0.12 0.00 95 1020.8
20260902080604 59 0 0.0 1.0 0.00 0.12 0.00 95 1020.8
20260902075601 59 0 0.0 0.0 0.00 0.12 0.00 95 1020.9
20260902075101 59 0 0.0 0.0 0.00 0.12 0.00 95 1021.0
20260902074601 60 0 0.0 0.0 0.00 0.12 0.00 95 1021.1
20260902074101 60 0 0.0 0.0 0.00 0.12 0.00 95 1021.0
20260902073600 60 0 0.0 0.0 0.00 0.12 0.00 95 1021.0
20260902073103 60 0 0.0 0.0 0.00 0.12 0.00 95 1020.9
20260902072601 60 0 0.0 0.0 0.00 0.12 0.00 95 1020.9
20260902072104 60 0 0.0 0.0 0.00 0.12 0.00 95 1020.8
20260902071605 60 0 0.0 0.0 0.00 0.12 0.00 95 1020.8
20260902071101 60 0 0.0 1.0 0.00 0.12 0.00 95 1020.8
20260902070600 60 0 0.0 2.0 0.00 0.12 0.00 95 1020.7
20260902070107 60 0 0.0 3.0 0.00 0.12 0.00 95 1020.7
20260902065605 59 0 0.0 3.0 0.00 0.12 0.00 95 1020.7
20260902065100 59 55 0.0 3.0 0.00 0.12 0.00 95 1020.7
20260902064603 59 0 0.0 2.0 0.00 0.12 0.00 95 1020.7
20260902064100 59 0 0.0 2.0 0.00 0.12 0.00 95 1020.7
20260902063559 60 0 0.0 2.0 0.00 0.12 0.00 95 1020.7
20260902063106 60 0 0.0 0.0 0.00 0.12 0.00 95 1020.6
20260902062600 60 0 0.0 0.0 0.00 0.12 0.00 95 1020.7
20260902062059 60 0 0.0 0.0 0.00 0.12 0.00 95 1020.8
20260902061618 59 0 0.0 0.0 0.00 0.12 0.00 95 1020.8
20260902061101 60 0 0.0 0.0 0.00 0.12 0.00 95 1020.7
20260902060559 59 0 0.0 0.0 0.00 0.12 0.00 95 1020.9
20260902060115 60 0 0.0 0.0 0.00 0.12 0.00 95 1020.9
20260902055558 59 0 0.0 0.0 0.00 0.12 0.00 95 1020.9
20260902055059 59 0 0.0 0.0 0.00 0.12 0.00 95 1020.8
20260902054600 59 0 0.0 0.0 0.00 0.12 0.00 95 1020.9
20260902054055 59 0 0.0 2.0 0.00 0.12 0.00 95 1020.8
20260902053558 59 0 0.0 2.0 0.00 0.12 0.00 95 1020.7
20260902053103 59 0 0.0 2.0 0.00 0.12 0.00 95 1020.5
20260902052600 59 0 0.0 1.0 0.00 0.12 0.00 95 1020.6
20260902052059 59 0 0.0 1.0 0.00 0.12 0.00 95 1020.7
20260902051613 60 0 0.0 1.0 0.00 0.12 0.00 95 1020.7
20260902051100 60 0 0.0 1.0 0.00 0.12 0.00 95 1020.5
20260902050556 60 0 0.0 1.0 0.00 0.12 0.00 95 1020.7
20260902050101 60 0 0.0 1.0 0.00 0.12 0.00 95 1020.8
20260902045557 60 0 0.0 1.0 0.00 0.12 0.00 95 1020.6
20260902045059 60 0 0.0 1.0 0.00 0.12 0.00 95 1020.5
20260902044610 60 0 0.0 1.0 0.00 0.12 0.00 95 1020.5
20260902044057 60 0 0.0 0.0 0.00 0.12 0.00 95 1020.6
20260902043556 60 0 0.0 0.0 0.00 0.12 0.00 95 1020.4
20260902043103 60 0 0.0 0.0 0.00 0.12 0.00 95 1020.2
20260902042559 60 0 0.0 0.0 0.00 0.12 0.00 95 1020.1
20260902042100 60 0 0.0 0.0 0.00 0.12 0.00 95 1020.0
20260902041605 60 0 0.0 0.0 0.00 0.12 0.00 95 1020.0
20260902041059 60 0 0.0 0.0 0.00 0.12 0.00 95 1019.9
20260902040559 60 0 0.0 0.0 0.00 0.12 0.00 95 1019.9
20260902040106 60 0 0.0 1.0 0.00 0.12 0.00 95 1020.0
20260902035556 60 0 0.0 1.0 0.00 0.12 0.12 95 1019.9
20260902035059 60 0 0.0 0.0 0.00 0.12 0.12 94 1019.8
20260902034606 60 0 0.0 1.0 0.00 0.12 0.12 94 1019.9
20260902034059 60 0 0.0 1.0 0.00 0.12 0.12 94 1019.9
20260902033559 60 0 0.0 1.0 0.00 0.12 0.12 94 1019.8
20260902033111 60 0 0.0 2.0 0.00 0.12 0.12 94 1019.8
20260902032603 61 0 0.0 3.0 0.00 0.12 0.12 95 1019.6
20260902032059 60 0 0.0 3.0 0.00 0.12 0.12 94 1019.6
20260902031615 60 0 0.0 4.0 0.00 0.12 0.12 94 1019.6
20260902031059 60 93 0.0 4.0 0.00 0.12 0.12 95 1019.6
20260902030600 60 94 1.0 3.0 0.00 0.12 0.12 95 1019.7
20260902030117 60 94 0.0 0.0 0.00 0.12 0.12 95 1019.8
20260902025600 60 0 0.0 0.0 0.00 0.12 0.12 95 1019.9
20260902025100 60 0 0.0 0.0 0.00 0.12 0.12 95 1019.9
20260902024604 60 0 0.0 0.0 0.00 0.12 0.12 95 1019.9
20260902024059 60 0 0.0 1.0 0.00 0.12 0.12 95 1019.9
20260902023601 60 0 0.0 1.0 0.00 0.12 0.12 94 1019.8
20260902023104 60 0 0.0 1.0 0.00 0.12 0.12 94 1019.7
20260902022600 60 0 0.0 0.0 0.00 0.12 0.12 94 1019.7
20260902022101 60 0 0.0 1.0 0.00 0.12 0.12 94 1019.5
20260902021634 60 0 0.0 1.0 0.00 0.12 0.12 94 1019.6
20260902021059 60 0 0.0 1.0 0.00 0.12 0.12 94 1019.6
20260902020601 60 0 0.0 2.0 0.00 0.12 0.12 94 1019.6
20260902020100 60 0 0.0 2.0 0.00 0.12 0.12 94 1019.6
20260902015601 60 0 0.0 2.0 0.00 0.12 0.12 94 1019.7
20260902015105 60 0 0.0 2.0 0.00 0.12 0.12 94 1019.8
20260902014616 60 0 0.0 0.0 0.00 0.12 0.12 94 1019.8
20260902014059 60 0 0.0 0.0 0.00 0.12 0.12 94 1019.6
20260902013559 60 0 0.0 1.0 0.00 0.12 0.12 94 1019.6
20260902013104 61 0 0.0 1.0 0.00 0.12 0.12 94 1019.4
20260902012559 61 0 0.0 0.0 0.00 0.12 0.12 94 1019.4
20260902012059 61 0 0.0 0.0 0.00 0.12 0.12 94 1019.5
20260902011605 61 0 0.0 1.0 0.00 0.12 0.12 94 1019.6
20260902011104 61 0 0.0 1.0 0.00 0.12 0.12 94 1019.7
20260902010601 61 0 0.0 3.0 0.00 0.12 0.12 94 1019.6
20260902010108 61 0 0.0 3.0 0.00 0.12 0.12 94 1019.6
20260902005603 61 0 0.0 3.0 0.00 0.12 0.12 94 1019.6
20260902005100 61 69 1.0 3.0 0.00 0.12 0.12 94 1019.5
20260902004605 61 90 0.0 3.0 0.00 0.12 0.12 94 1019.5
20260902004059 61 0 0.0 0.0 0.00 0.12 0.12 94 1019.5
20260902003559 61 0 0.0 0.0 0.00 0.12 0.12 94 1019.5
20260902003115 61 0 0.0 0.0 0.00 0.12 0.12 94 1019.5
20260902002559 61 0 0.0 0.0 0.00 0.12 0.12 94 1019.4
20260902002059 61 0 0.0 0.0 0.00 0.12 0.12 94 1019.4
20260902001605 61 0 0.0 0.0 0.00 0.12 0.12 94 1019.6
20260902001059 61 0 0.0 0.0 0.00 0.12 0.12 94 1019.6
20260902000601 61 0 0.0 0.0 0.00 0.12 0.12 94 1019.5
20260902000106 61 0 0.0 0.0 0.00 0.12 0.12 94 1019.5
20260901235601 61 0 0.0 0.0 0.00 0.12 0.12 94 1019.3
20260901235059 61 0 0.0 0.0 0.00 0.12 0.12 94 1019.2
20260901234612 61 0 0.0 0.0 0.00 0.12 0.12 93 1019.1
20260901234100 61 0 0.0 0.0 0.00 0.12 0.12 93 1019.2
20260901233600 61 0 0.0 0.0 0.00 0.12 0.12 94 1019.0
20260901233113 61 0 0.0 0.0 0.00 0.12 0.12 93 1019.1
20260901232559 61 0 0.0 0.0 0.00 0.12 0.12 94 1019.1
20260901232103 61 0 0.0 0.0 0.00 0.12 0.12 93 1019.2
20260901231603 61 0 0.0 0.0 0.00 0.12 0.12 93 1019.2
20260901231102 61 0 0.0 3.0 0.00 0.12 0.12 93 1019.2
20260901230559 61 0 0.0 3.0 0.00 0.12 0.12 93 1019.1
20260901230106 61 67 0.0 1.0 0.00 0.12 0.12 93 1019.1
20260901225600 61 0 0.0 3.0 0.00 0.12 0.12 93 1019.0
20260901225059 62 0 1.0 3.0 0.00 0.12 0.12 93 1019.0
20260901224602 62 69 0.0 2.0 0.00 0.12 0.12 93 1018.9
20260901224059 62 0 0.0 3.0 0.00 0.12 0.12 93 1018.9
20260901223600 62 0 0.0 4.0 0.00 0.12 0.12 93 1018.9
20260901223111 62 84 0.0 4.0 0.00 0.12 0.12 93 1018.8
20260901222559 62 76 0.0 4.0 0.01 0.12 0.12 93 1018.8
20260901222059 62 87 1.0 5.0 0.01 0.12 0.12 93 1018.9
20260901221604 62 71 1.0 5.0 0.01 0.12 0.12 93 1019.0
20260901221100 62 61 2.0 5.0 0.01 0.12 0.12 93 1019.0
20260901220559 62 0 0.0 1.0 0.02 0.12 0.12 93 1019.2
20260901220107 62 0 0.0 1.0 0.02 0.12 0.12 93 1019.3
20260901215559 62 0 0.0 1.0 0.02 0.12 0.12 93 1019.3
20260901215059 61 0 0.0 2.0 0.02 0.12 0.12 93 1019.3
20260901214604 61 70 0.0 2.0 0.02 0.12 0.12 93 1019.2
20260901214101 61 0 0.0 2.0 0.02 0.12 0.12 93 1019.2
20260901213559 61 0 0.0 1.0 0.02 0.12 0.12 93 1019.1
20260901213059 61 0 0.0 1.0 0.03 0.12 0.12 93 1019.2
20260901212601 61 0 0.0 1.0 0.02 0.11 0.11 93 1019.2
20260901212100 61 0 0.0 0.0 0.02 0.11 0.11 93 1019.2
20260901211601 61 0 0.0 1.0 0.02 0.11 0.11 92 1019.2
20260901211106 61 0 0.0 1.0 0.02 0.11 0.11 93 1019.1
20260901210559 61 168 0.0 1.0 0.01 0.10 0.10 93 1019.0
20260901210114 61 0 0.0 2.0 0.01 0.10 0.10 92 1018.9
20260901205559 61 0 0.0 2.0 0.01 0.10 0.10 93 1018.8
20260901205059 61 0 0.0 1.0 0.02 0.10 0.10 93 1018.8
20260901204602 60 95 0.0 1.0 0.02 0.10 0.10 92 1018.7
20260901204059 61 0 0.0 0.0 0.02 0.10 0.10 92 1018.7
20260901203600 61 0 0.0 0.0 0.02 0.10 0.10 92 1018.6
20260901203115 61 0 0.0 0.0 0.01 0.09 0.09 92 1018.5
20260901202600 61 0 0.0 0.0 0.01 0.09 0.09 92 1018.5
20260901202101 61 0 0.0 0.0 0.01 0.09 0.09 93 1018.6
20260901201600 61 0 0.0 0.0 0.01 0.09 0.09 92 1018.5
20260901201100 60 0 0.0 0.0 0.01 0.09 0.09 92 1018.5
20260901200559 61 0 0.0 0.0 0.01 0.09 0.09 92 1018.5
20260901200105 61 0 0.0 0.0 0.01 0.09 0.09 92 1018.6
20260901195603 61 0 0.0 0.0 0.01 0.09 0.09 92 1018.5
20260901195100 61 0 0.0 1.0 0.00 0.08 0.08 92 1018.6
20260901194615 61 0 0.0 1.0 0.00 0.08 0.08 92 1018.6
20260901194101 61 0 0.0 1.0 0.00 0.08 0.08 92 1018.7
20260901193559 61 0 0.0 1.0 0.00 0.08 0.08 92 1018.7
20260901193106 62 0 0.0 1.0 0.00 0.08 0.08 92 1018.5
20260901192600 62 0 0.0 1.0 0.00 0.08 0.08 91 1018.4
20260901192100 62 0 0.0 1.0 0.00 0.08 0.08 92 1018.4
20260901191607 62 0 0.0 1.0 0.01 0.08 0.08 92 1018.4
20260901191101 62 95 0.0 3.0 0.01 0.08 0.08 91 1018.5
20260901190604 63 61 0.0 3.0 0.02 0.08 0.08 92 1018.4
20260901190115 63 61 0.0 3.0 0.03 0.08 0.08 92 1018.4
20260901185606 63 0 0.0 2.0 0.05 0.08 0.08 92 1018.2
20260901185059 63 0 0.0 2.0 0.07 0.08 0.08 92 1018.1
20260901184619 62 0 0.0 1.0 0.07 0.08 0.08 92 1018.4
20260901184103 62 0 0.0 1.0 0.07 0.08 0.08 92 1018.4
20260901183600 63 0 0.0 1.0 0.08 0.08 0.08 92 1018.3
20260901183059 63 0 0.0 1.0 0.08 0.08 0.08 92 1018.3